Fayetteville, NC

5:14 AM EDT on May 23, 2017 (GMT -0400)
Fayetteville Regional-Grannis

Weather History for KFAY - February, 2014

Change the Weather History Date:

Saturday, February 15, 2014

  Actual Average Record
Temperature  
Mean Temperature 43 °F 47 °F  
Max Temperature 52 °F 59 °F 81 °F (1918)
Min Temperature 34 °F 35 °F 12 °F (1943)
Degree Days  
Heating Degree Days 22 18  
Month to date heating degree days 335 285  
Since 1 July heating degree days 2126 2011  
Cooling Degree Days 0 0  
Month to date cooling degree days 0 0  
Year to date cooling degree days 0 2  
Moisture  
Dew Point 31 °F    
Average Humidity 59    
Maximum Humidity 92    
Minimum Humidity 26    
Precipitation  
Precipitation 0.27 in 0.11 in 1.46 in (1941)
Month to date precipitation 1.58 1.41  
Year to date precipitation 5.64 4.71  
Sea Level Pressure  
Sea Level Pressure 29.73 in    
Wind  
Wind Speed 12 mph (West)    
Max Wind Speed 29 mph    
Max Gust Speed 38 mph    
Visibility 9 miles    
Events Rain    
T = Trace of Precipitation, MM = Missing Value Source: NWS Daily Summary

Daily Weather History Graph

Daily Weather History Graph

Search for Another Location

Airport or City:

Trip Planner

Search our weather history database for the weather conditions in past years. The results will help you decide how hot, cold, wet, or windy it might be!

Date:

Astronomy

Feb. 15, 2014 Rise Set
Actual Time 7:01 AM EST 5:58 PM EST
Civil Twilight 6:35 AM EST 6:24 PM EST
Nautical Twilight 6:05 AM EST 6:53 PM EST
Astronomical Twilight 5:36 AM EST 7:23 PM EST
Moon 6:52 PM EST (2/15) 7:02 AM EST (2/15)
Length of Visible Light 11h 48m
Length of Day
10h 56m
Full, 100% of the Moon is Illuminated
Feb 15
Full
Feb 22
Last Quarter
Mar 1
New
Mar 8
First Quarter
Mar 16
Full

Hourly Weather History & Observations

Time (EST) Temp. Windchill Dew Point Humidity Pressure Visibility Wind Dir Wind Speed Gust Speed Precip Events Conditions
12:53 AM 42.1 °F 37.7 °F 35.1 °F 76% 29.69 in 10.0 mi SSE 6.9 mph - N/A   Clear
1:53 AM 44.1 °F 39.5 °F 36.0 °F 73% 29.68 in 10.0 mi SSW 8.1 mph - N/A   Mostly Cloudy
2:53 AM 45.0 °F 40.6 °F 37.0 °F 74% 29.65 in 10.0 mi South 8.1 mph - N/A   Overcast
3:53 AM 44.1 °F - 39.0 °F 82% 29.60 in 10.0 mi Calm Calm - 0.00 in   Overcast
4:53 AM 43.0 °F 41.3 °F 39.0 °F 86% 29.57 in 10.0 mi SSE 3.5 mph - N/A   Mostly Cloudy
5:53 AM 43.0 °F 38.8 °F 39.9 °F 89% 29.57 in 3.0 mi SSW 6.9 mph - 0.05 in Rain Light Rain
6:53 AM 44.1 °F 41.5 °F 42.1 °F 93% 29.53 in 8.0 mi SSW 4.6 mph - 0.09 in Rain Light Rain
7:31 AM 43.0 °F 38.2 °F 42.1 °F 97% 29.54 in 5.0 mi SSW 8.1 mph - 0.02 in Rain Light Rain
7:53 AM 44.1 °F 36.8 °F 42.1 °F 93% 29.54 in 6.0 mi SW 16.1 mph - 0.04 in Rain Light Rain
8:01 AM 44.1 °F 35.7 °F 41.0 °F 89% 29.55 in 5.0 mi WSW 20.7 mph 25.3 mph 0.02 in Rain Light Rain
8:15 AM 44.1 °F 37.1 °F 39.9 °F 85% 29.56 in 9.0 mi West 15.0 mph - 0.03 in Rain Light Rain
8:53 AM 43.0 °F 34.8 °F 39.0 °F 86% 29.57 in 10.0 mi West 18.4 mph 23.0 mph 0.04 in Rain Light Rain
9:06 AM 42.1 °F 35.2 °F 39.0 °F 89% 29.58 in 7.0 mi West 12.7 mph - 0.00 in Rain Light Rain
9:53 AM 43.0 °F 34.8 °F 39.0 °F 86% 29.60 in 10.0 mi West 18.4 mph 26.5 mph 0.03 in Rain Light Rain
10:53 AM 44.1 °F 36.8 °F 39.0 °F 82% 29.65 in 10.0 mi WNW 16.1 mph 31.1 mph 0.02 in Rain Light Rain
11:17 AM 45.0 °F 37.9 °F 39.0 °F 80% 29.67 in 10.0 mi WNW 16.1 mph 26.5 mph 0.00 in   Overcast
11:38 AM 46.0 °F 39.3 °F 37.9 °F 73% 29.69 in 10.0 mi WNW 16.1 mph 23.0 mph 0.00 in   Mostly Cloudy
11:53 AM 46.0 °F 38.8 °F 37.0 °F 71% 29.68 in 10.0 mi West 18.4 mph 28.8 mph 0.00 in   Overcast
12:53 PM 50.0 °F - 30.0 °F 46% 29.69 in 10.0 mi WNW 20.7 mph 34.5 mph N/A   Mostly Cloudy
1:53 PM 51.1 °F - 26.1 °F 38% 29.73 in 10.0 mi WNW 23.0 mph 31.1 mph N/A   Clear
2:53 PM 51.1 °F - 25.0 °F 36% 29.76 in 10.0 mi WNW 23.0 mph 32.2 mph 0.00 in   Clear
3:53 PM 50.0 °F - 21.9 °F 33% 29.82 in 10.0 mi WNW 19.6 mph 32.2 mph N/A   Clear
4:53 PM 48.0 °F - 16.0 °F 28% 29.88 in 10.0 mi NW 12.7 mph 26.5 mph N/A   Clear
5:53 PM 45.0 °F 39.3 °F 16.0 °F 31% 29.92 in 10.0 mi WNW 11.5 mph - N/A   Clear
6:53 PM 42.1 °F 36.6 °F 16.0 °F 35% 29.97 in 10.0 mi West 9.2 mph - N/A   Clear
7:53 PM 39.9 °F 33.4 °F 16.0 °F 38% 30.01 in 10.0 mi NW 10.4 mph - N/A   Clear
8:53 PM 39.9 °F 32.1 °F 12.0 °F 32% 30.03 in 10.0 mi NNW 13.8 mph - N/A   Clear
9:53 PM 37.0 °F 31.0 °F 12.0 °F 36% 30.02 in 10.0 mi NNW 8.1 mph - N/A   Clear
10:53 PM 36.0 °F 30.3 °F 12.9 °F 39% 30.03 in 10.0 mi North 6.9 mph - N/A   Clear
11:53 PM 36.0 °F 27.5 °F 15.1 °F 43% 30.01 in 10.0 mi North 12.7 mph - N/A   Clear